This demonstration page uses our WeatherBlox Daily Observations layout. Learn more.

Left ArrowRight Arrow

36.19886, -115.1175

Hourly Observations for December 23, 2018

Temp ( °F °C ) Dew Point ( °F °C ) Humidity (%) Winds ( mph kmh ) Pressure ( in mb ) Visibility ( mi km ) Precip ( " mm )
12:53 am 00:53 Clear 49 9.4 25 -3.9 39 39 W 3 6 30.22 1023 10 16.0934 N/A
1:53 am 01:53 Clear 49 9.4 26 -3.3 41 41 N N/A 30.22 1024 10 16.0934 N/A
2:53 am 02:53 Clear 47 8.3 27 -2.8 46 46 N 6 9 30.22 1024 10 16.0934 N/A
3:53 am 03:53 Clear 46 7.8 26 -3.3 46 46 NW 7 11 30.21 1023 10 16.0934 N/A
4:53 am 04:53 Clear 43 6.1 25 -3.9 49 49 N N/A 30.21 1023 10 16.0934 N/A
5:53 am 05:53 Clear 43 6.1 24 -4.4 47 47 NW 5 7 30.23 1024 10 16.0934 N/A
6:53 am 06:53 Sunny 42 5.6 24 -4.4 49 49 NW 6 9 30.26 1025 10 16.0934 N/A
7:53 am 07:53 Sunny 44 6.7 25 -3.9 47 47 NNW 5 7 30.27 1025 10 16.0934 N/A
8:53 am 08:53 Sunny 49 9.4 26 -3.3 41 41 N N/A 30.26 1025 10 16.0934 N/A
9:53 am 09:53 Sunny 53 11.7 24 -4.4 32 32 N N/A 30.26 1025 10 16.0934 N/A
10:53 am 10:53 Sunny 57 13.9 23 -5 27 27 N N/A 30.24 1024 10 16.0934 N/A
11:53 am 11:53 Sunny 58 14.4 22 -5.6 25 25 SE 7 11 30.17 1022 10 16.0934 N/A
12:53 pm 12:53 Sunny 59 15 22 -5.6 24 24 SE 3 6 30.17 1022 10 16.0934 N/A
1:53 pm 13:53 Sunny 60 15.6 20 -6.7 21 21 SE 5 7 30.14 1021 10 16.0934 N/A
2:53 pm 14:53 Sunny 60 15.6 19 -7.2 20 20 ESE 3 6 30.15 1021 10 16.0934 N/A
3:53 pm 15:53 Sunny 59 15 18 -7.8 20 20 ESE 3 6 30.15 1021 10 16.0934 N/A
4:53 pm 16:53 Clear 57 13.9 18 -7.8 22 22 N N/A 30.16 1022 10 16.0934 N/A
5:53 pm 17:53 Clear 53 11.7 22 -5.6 30 30 N N/A 30.17 1022 10 16.0934 N/A
6:53 pm 18:53 Clear 50 10 24 -4.4 36 36 NW 6 9 30.18 1022 10 16.0934 N/A
7:53 pm 19:53 Clear 47 8.3 23 -5 39 39 NW 6 9 30.18 1022 10 16.0934 N/A
8:53 pm 20:53 Clear 46 7.8 23 -5 40 40 NW 7 11 30.17 1022 10 16.0934 N/A
9:53 pm 21:53 Clear 46 7.8 23 -5 40 40 WNW 5 7 30.16 1021 10 16.0934 N/A
10:53 pm 22:53 Clear 44 6.7 23 -5 43 43 WNW 3 6 30.15 1021 10 16.0934 N/A
11:53 pm 23:53 Clear 45 7.2 22 -5.6 40 40 WNW 7 11 30.15 1021 10 16.0934 N/A

Powered by AerisWeather